TimeCDT,TemperatureF,Dew PointF,Humidity,Sea Level PressureIn,VisibilityMPH,Wind Direction,Wind SpeedMPH,Gust SpeedMPH,PrecipitationIn,Events,Conditions,WindDirDegrees,DateUTC
12:15 AM,40.1,40.1,100,29.27,10.0,SSW,5.8,-,N/A,,Overcast,200,2013-04-19 05:15:00
12:35 AM,41.2,41.0,99,29.26,10.0,SSW,6.9,-,N/A,,Overcast,210,2013-04-19 05:35:00
12:55 AM,42.6,39.6,89,29.24,10.0,SW,10.4,-,N/A,,Overcast,220,2013-04-19 05:55:00
1:15 AM,42.4,38.8,87,29.24,10.0,SW,9.2,-,N/A,,Overcast,220,2013-04-19 06:15:00
1:35 AM,41.7,38.3,88,29.23,10.0,SSW,12.7,17.3,N/A,,Overcast,210,2013-04-19 06:35:00
1:55 AM,41.0,37.2,86,29.24,10.0,SSW,15.0,21.9,N/A,,Overcast,210,2013-04-19 06:55:00
2:15 AM,39.7,35.8,86,29.24,10.0,SW,11.5,17.3,N/A,,Overcast,220,2013-04-19 07:15:00
2:35 AM,39.6,34.9,83,29.24,10.0,SW,10.4,-,N/A,,Overcast,220,2013-04-19 07:35:00
2:55 AM,39.4,35.1,84,29.23,10.0,SW,9.2,-,N/A,,Overcast,230,2013-04-19 07:55:00
3:15 AM,37.6,35.1,91,29.22,10.0,SSW,11.5,18.4,N/A,,Overcast,200,2013-04-19 08:15:00
3:35 AM,37.0,34.7,91,29.22,10.0,SSW,9.2,19.6,N/A,,Overcast,210,2013-04-19 08:35:00
3:55 AM,36.9,33.8,89,29.21,10.0,SSW,9.2,-,N/A,,Overcast,210,2013-04-19 08:55:00
4:15 AM,36.9,32.9,86,29.21,10.0,SW,12.7,20.7,N/A,,Overcast,220,2013-04-19 09:15:00
4:35 AM,36.5,31.6,83,29.21,10.0,SSW,17.3,24.2,N/A,,Overcast,200,2013-04-19 09:35:00
4:55 AM,36.1,32.0,85,29.20,10.0,SSW,9.2,20.7,N/A,,Overcast,210,2013-04-19 09:55:00
5:15 AM,35.6,31.5,85,29.20,10.0,SSW,11.5,19.6,N/A,,Overcast,210,2013-04-19 10:15:00
5:55 AM,34.9,30.2,83,29.19,10.0,SW,10.4,21.9,N/A,,Overcast,220,2013-04-19 10:55:00
6:15 AM,34.7,30.4,84,29.19,10.0,SW,16.1,23.0,N/A,,Overcast,220,2013-04-19 11:15:00
6:35 AM,34.3,30.2,85,29.19,10.0,SSW,11.5,21.9,N/A,,Overcast,210,2013-04-19 11:35:00
6:55 AM,34.3,29.8,84,29.19,10.0,SW,12.7,23.0,N/A,,Overcast,230,2013-04-19 11:55:00
7:15 AM,34.3,29.5,82,29.19,10.0,SW,13.8,20.7,N/A,,Overcast,230,2013-04-19 12:15:00
7:35 AM,34.7,29.1,80,29.18,10.0,SW,12.7,24.2,N/A,,Overcast,220,2013-04-19 12:35:00
7:55 AM,34.9,29.7,81,29.18,10.0,SW,18.4,26.5,N/A,,Overcast,230,2013-04-19 12:55:00
8:15 AM,34.7,29.8,82,29.18,10.0,WSW,13.8,25.3,N/A,,Overcast,240,2013-04-19 13:15:00
8:35 AM,34.9,30.2,83,29.17,10.0,SW,12.7,26.5,N/A,,Overcast,230,2013-04-19 13:35:00
8:55 AM,35.2,30.2,82,29.17,10.0,SW,16.1,20.7,N/A,,Overcast,230,2013-04-19 13:55:00
9:15 AM,35.1,30.7,84,29.17,10.0,WSW,13.8,23.0,N/A,,Overcast,240,2013-04-19 14:15:00
9:35 AM,35.1,31.6,87,29.18,10.0,WSW,15.0,23.0,N/A,,Overcast,240,2013-04-19 14:35:00
9:55 AM,34.2,32.0,92,29.18,3.0,WSW,12.7,23.0,N/A,,Overcast,250,2013-04-19 14:55:00
10:15 AM,35.1,32.0,89,29.19,7.0,WSW,17.3,23.0,N/A,,Overcast,250,2013-04-19 15:15:00
10:35 AM,35.2,32.2,89,29.21,10.0,West,12.7,21.9,N/A,,Overcast,280,2013-04-19 15:35:00
10:55 AM,35.2,30.6,83,29.22,10.0,West,18.4,28.8,N/A,,Overcast,280,2013-04-19 15:55:00
11:15 AM,35.2,28.9,78,29.24,10.0,West,23.0,28.8,N/A,,Overcast,270,2013-04-19 16:15:00
11:35 AM,35.8,26.8,70,29.25,10.0,West,20.7,29.9,N/A,,Overcast,280,2013-04-19 16:35:00
11:55 AM,35.8,26.2,68,29.27,10.0,WNW,16.1,25.3,N/A,,Overcast,290,2013-04-19 16:55:00
12:15 PM,35.4,24.6,65,29.28,10.0,WNW,21.9,33.4,N/A,,Overcast,290,2013-04-19 17:15:00
12:35 PM,34.9,24.3,65,29.30,10.0,West,23.0,36.8,N/A,,Overcast,270,2013-04-19 17:35:00
12:55 PM,35.6,24.1,63,29.31,10.0,West,26.5,38.0,N/A,,Overcast,280,2013-04-19 17:55:00
1:15 PM,36.7,23.0,58,29.32,10.0,West,19.6,27.6,N/A,,Overcast,280,2013-04-19 18:15:00
1:35 PM,39.4,22.1,50,29.34,10.0,West,26.5,38.0,N/A,,Overcast,270,2013-04-19 18:35:00
1:55 PM,38.1,21.9,52,29.35,10.0,West,20.7,40.3,N/A,,Overcast,280,2013-04-19 18:55:00
2:15 PM,37.2,21.0,52,29.36,10.0,WNW,17.3,36.8,N/A,,Overcast,290,2013-04-19 19:15:00
2:35 PM,36.3,20.3,52,29.38,10.0,West,25.3,38.0,N/A,,Overcast,270,2013-04-19 19:35:00
2:55 PM,37.8,21.0,51,29.39,10.0,West,23.0,33.4,N/A,,Overcast,280,2013-04-19 19:55:00
3:15 PM,37.4,18.5,46,29.41,10.0,WNW,20.7,33.4,N/A,,Overcast,290,2013-04-19 20:15:00
3:35 PM,36.9,18.3,47,29.42,10.0,WNW,24.2,32.2,N/A,,Overcast,290,2013-04-19 20:35:00
3:55 PM,35.2,21.2,57,29.46,10.0,WNW,13.8,26.5,N/A,,Overcast,300,2013-04-19 20:55:00
4:15 PM,35.8,18.1,49,29.47,10.0,WNW,18.4,26.5,N/A,,Overcast,300,2013-04-19 21:15:00
4:35 PM,35.6,19.6,52,29.50,10.0,NW,12.7,26.5,N/A,,Overcast,310,2013-04-19 21:35:00
4:55 PM,34.9,17.2,49,29.51,10.0,WNW,16.1,21.9,N/A,,Overcast,300,2013-04-19 21:55:00
5:15 PM,33.4,17.4,52,29.54,10.0,WNW,15.0,26.5,N/A,,Overcast,300,2013-04-19 22:15:00
5:35 PM,33.3,15.8,49,29.56,10.0,WNW,15.0,24.2,N/A,,Overcast,300,2013-04-19 22:35:00
5:55 PM,32.9,15.4,49,29.58,10.0,NW,11.5,19.6,N/A,,Overcast,320,2013-04-19 22:55:00
6:15 PM,32.2,16.2,52,29.59,10.0,NW,13.8,21.9,N/A,,Overcast,310,2013-04-19 23:15:00
6:35 PM,32.0,16.7,53,29.61,10.0,NW,10.4,17.3,N/A,,Overcast,310,2013-04-19 23:35:00
6:55 PM,31.6,14.5,49,29.62,10.0,WNW,10.4,19.6,N/A,,Mostly Cloudy,300,2013-04-19 23:55:00
7:15 PM,30.9,14.9,52,29.64,10.0,NW,11.5,24.2,N/A,,Mostly Cloudy,310,2013-04-20 00:15:00
7:35 PM,30.2,14.7,53,29.66,10.0,NW,12.7,21.9,N/A,,Overcast,310,2013-04-20 00:35:00
7:55 PM,29.7,15.3,55,29.67,10.0,NW,10.4,17.3,N/A,,Overcast,310,2013-04-20 00:55:00
8:15 PM,29.7,13.6,51,29.69,10.0,NNW,16.1,21.9,N/A,,Overcast,330,2013-04-20 01:15:00
8:35 PM,29.5,12.9,50,29.71,10.0,NW,16.1,24.2,N/A,,Overcast,320,2013-04-20 01:35:00
8:55 PM,28.4,15.3,58,29.73,10.0,NW,11.5,25.3,N/A,,Overcast,320,2013-04-20 01:55:00
9:15 PM,28.4,14.5,56,29.75,10.0,NW,12.7,19.6,N/A,,Overcast,310,2013-04-20 02:15:00
9:35 PM,28.4,12.9,52,29.76,10.0,NNW,12.7,20.7,N/A,,Mostly Cloudy,330,2013-04-20 02:35:00
9:55 PM,27.7,13.1,54,29.77,10.0,NW,15.0,20.7,N/A,,Mostly Cloudy,320,2013-04-20 02:55:00
10:15 PM,27.3,12.9,55,29.79,10.0,NNW,15.0,25.3,N/A,,Overcast,330,2013-04-20 03:15:00
10:35 PM,27.1,13.1,56,29.80,10.0,NW,9.2,20.7,N/A,,Overcast,320,2013-04-20 03:35:00
10:55 PM,27.0,13.1,56,29.81,10.0,NNW,11.5,-,N/A,,Overcast,330,2013-04-20 03:55:00
11:15 PM,26.8,13.5,57,29.82,10.0,NNW,11.5,25.3,N/A,,Overcast,340,2013-04-20 04:15:00
11:35 PM,26.6,14.7,61,29.83,10.0,NNW,10.4,17.3,N/A,,Overcast,330,2013-04-20 04:35:00
11:55 PM,26.6,14.9,61,29.84,10.0,NNW,12.7,16.1,N/A,,Mostly Cloudy,330,2013-04-20 04:55:00